Regional Weather Roundup
Issued by NWS Little Rock, AR

Home | Current Version | Previous Version | Text Only | Print | Product List | Glossary On
Versions: 1 2 3 4 5 6 7 8 9 10 11 12 13 14 15 16 17 18 19 20 21 22 23 24 25 26 27
000
ASUS44 KLZK 191805
RWRLZK

WEATHER ROUNDUP FOR ARKANSAS
NATIONAL WEATHER SERVICE LITTLE ROCK AR
100 PM CDT SAT APR 19 2014

NOTE: "FAIR" INDICATES FEW OR NO CLOUDS BELOW 12,000 FEET WITH NO
SIGNIFICANT WEATHER AND/OR OBSTRUCTIONS TO VISIBILITY.

ARZ001-003-010-029-191900-
NORTHWEST ARKANSAS

CITY           SKY/WX    TMP DP  RH WIND       PRES   REMARKS
FAYETTEVILLE   PTSUNNY   71  48  43 S8        30.21F
6HR MIN TEMP:  42; 6HR MAX TEMP:  71;

FORT SMITH     MOSUNNY   75  44  33 E7        30.20F
6HR MIN TEMP:  50; 6HR MAX TEMP:  76;

HARRISON       MOSUNNY   71  46  40 SE6       30.23F
6HR MIN TEMP:  48; 6HR MAX TEMP:  72;

BENTONVILLE    PTSUNNY   72  46  40 S7        30.22F
6HR MIN TEMP:  48; 6HR MAX TEMP:  72;

ROGERS         PTSUNNY   71  44  37 S7        30.21F
6HR MIN TEMP:  51; 6HR MAX TEMP:  72;

SILOAM SPGS    PTSUNNY   73  46  38 SW12      30.22F
6HR MIN TEMP:  48; 6HR MAX TEMP:  73;

HIGHFILL       PTSUNNY   72  45  37 S13       30.20F
6HR MIN TEMP:  45; 6HR MAX TEMP:  72;

SPRINGDALE     MOSUNNY   72  46  40 S12       30.22F
$$

ARZ004-005-016-191900-
NORTH CENTRAL ARKANSAS

CITY           SKY/WX    TMP DP  RH WIND       PRES   REMARKS
BATESVILLE     SUNNY     73  45  35 SE5       30.21F
6HR MIN TEMP:  46; 6HR MAX TEMP:  73;

FLIPPIN        SUNNY     72  46  40 E8        30.22F
6HR MIN TEMP:  45; 6HR MAX TEMP:  73;

MTN HOME       MOSUNNY   73  41  31 S9        30.21F
6HR MIN TEMP:  50; 6HR MAX TEMP:  73;

$$

ARZ040-041-191900-
WEST CENTRAL ARKANSAS

CITY           SKY/WX    TMP DP  RH WIND       PRES   REMARKS
MENA           SUNNY     75  43  31 CALM      30.21F
MOUNT IDA      MOSUNNY   73  50  44 MISG      30.20F
6HR MIN TEMP:  44; 6HR MAX TEMP:  74;

$$

ARZ009-017-025-026-028-191900-
NORTHEAST ARKANSAS

CITY           SKY/WX    TMP DP  RH WIND       PRES   REMARKS
CORNING          N/A     73  45  35 E7        30.23F
JONESBORO      SUNNY     74  42  31 E7        30.21F
6HR MIN TEMP:  53; 6HR MAX TEMP:  75;

NEWPORT        SUNNY     73  46  38 E7        30.23F
6HR MIN TEMP:  50; 6HR MAX TEMP:  74;

WALNUT RIDGE   SUNNY     73  48  40 E5        30.23F
6HR MIN TEMP:  48; 6HR MAX TEMP:  73;

BLYTHEVILLE    SUNNY     75  45  34 NE6       30.22F
6HR MIN TEMP:  49; 6HR MAX TEMP:  76;

$$

ARZ022-023-033-042-044-191900-
CENTRAL ARKANSAS

CITY           SKY/WX    TMP DP  RH WIND       PRES   REMARKS
LITTLE ROCK    PTSUNNY   75  50  41 VRB5      30.22F
6HR MIN TEMP:  52; 6HR MAX TEMP:  75;

N LITTLE ROCK  PTSUNNY   73  53  50 E7        30.22F
6HR MIN TEMP:  52; 6HR MAX TEMP:  74;

JACKSONVILLE   MOSUNNY   73  52  46 VRB5      30.22F
6HR MIN TEMP:  47; 6HR MAX TEMP:  74; 6HR PCP: TRACE;

SEARCY         SUNNY     76  49  38 W5        30.23F
6HR MIN TEMP:  48; 6HR MAX TEMP:  76;

HOT SPRINGS    PTSUNNY   74  51  44 SW6       30.22F
6HR MIN TEMP:  47; 6HR MAX TEMP:  74;

RUSSELLVILLE   MOSUNNY   74  52  46 VRB3      30.21F
6HR MIN TEMP:  46; 6HR MAX TEMP:  75;

CLINTON        PTSUNNY   72  52  49 E3        30.22F HAZE
$$

ARZ036-191900-
EAST ARKANSAS

CITY           SKY/WX    TMP DP  RH WIND       PRES   REMARKS
WEST MEMPHIS   SUNNY     76  45  33 NE12G18   30.19F
6HR MIN TEMP:  52; 6HR MAX TEMP:  76;

$$

ARZ050-053-066-070-073-191900-
SOUTHWEST ARKANSAS

CITY           SKY/WX    TMP DP  RH WIND       PRES   REMARKS
ARKADELPHIA    FAIR      74  55  51 S3        30.22F
6HR MIN TEMP:  48; 6HR MAX TEMP:  75;

CAMDEN         MOSUNNY   77  52  41 MISG      30.20F
TEXARKANA      CLOUDY    73  53  49 NE6       30.21F
6HR MIN TEMP:  51; 6HR MAX TEMP:  73;

EL DORADO      MOSUNNY   75  51  43 SE6       30.20F
6HR MIN TEMP:  47; 6HR MAX TEMP:  75;

DE QUEEN       PTSUNNY   73  53  49 S3        30.19F
6HR MIN TEMP:  46; 6HR MAX TEMP:  74;

$$

ARZ056-057-069-191900-
SOUTHEAST ARKANSAS

CITY           SKY/WX    TMP DP  RH WIND       PRES   REMARKS
PINE BLUFF     MOSUNNY   73  51  46 VRB6      30.21F
6HR MIN TEMP:  50; 6HR MAX TEMP:  74;

STUTTGART      SUNNY     73  54  49 S3        30.23F
6HR MIN TEMP:  52; 6HR MAX TEMP:  73;

MONTICELLO     MOSUNNY   74  49  41 VRB3      30.20F
6HR MIN TEMP:  50; 6HR MAX TEMP:  75;


$$





USA.gov is the U.S. government's official web portal to all federal, state and local government web resources and services.